This is the latest recevied weather packets stored in our database for station/object EA1IQY-10. If no packets are shown the sender has not sent any weather packets the latest 10 day(s).
| Time | Temp. | Humidity | Pressure | Rain* | Wind** | Luminosity | Snow |
|---|---|---|---|---|---|---|---|
| 1777580530 | 16.11° C | 100% | 1007.9 hPa | - | - | - | - |
| 1777579630 | 20° C | 100% | 1007.6 hPa | - | - | - | - |
| 1777578730 | 20° C | 100% | 1007.5 hPa | - | - | - | - |
| 1777577830 | 20.56° C | 100% | 1007.4 hPa | - | - | - | - |
| 1777576930 | 22.78° C | 100% | 1007.1 hPa | - | - | - | - |
| 1777576029 | 22.22° C | 100% | 1007 hPa | - | - | - | - |
| 1777575129 | 23.33° C | 100% | 1007 hPa | - | - | - | - |
| 1777574229 | 23.89° C | 100% | 1006.9 hPa | - | - | - | - |
| 1777573329 | 22.22° C | 100% | 1006.8 hPa | - | - | - | - |
| 1777572429 | 23.33° C | 100% | 1006.7 hPa | - | - | - | - |
| 1777571529 | 22.22° C | 100% | 1006.6 hPa | - | - | - | - |
| 1777570629 | 22.22° C | 100% | 1006.5 hPa | - | - | - | - |
| 1777569728 | 22.22° C | 100% | 1006.4 hPa | - | - | - | - |
| 1777568828 | 23.89° C | 100% | 1006.4 hPa | - | - | - | - |
| 1777567928 | 21.11° C | 100% | 1006.4 hPa | - | - | - | - |
| 1777567029 | 23.33° C | 100% | 1006.4 hPa | - | - | - | - |
| 1777566128 | 21.67° C | 100% | 1006.4 hPa | - | - | - | - |
| 1777565228 | 22.22° C | 100% | 1006.3 hPa | - | - | - | - |
| 1777564328 | 22.22° C | 100% | 1006.3 hPa | - | - | - | - |
| 1777563428 | 23.89° C | 100% | 1006.3 hPa | - | - | - | - |
| 1777562527 | 21.11° C | 100% | 1006.4 hPa | - | - | - | - |
| 1777561627 | 22.22° C | 100% | 1006.3 hPa | - | - | - | - |
| 1777560727 | 21.67° C | 100% | 1006.5 hPa | - | - | - | - |
| 1777559827 | 22.78° C | 100% | 1006.4 hPa | - | - | - | - |
| 1777558927 | 20° C | 100% | 1006.3 hPa | - | - | - | - |
* Rain since midnight (hover to see other rain measurements)
** Current wind speed in m/s (hover to see current wind gust speed)